GFSWCAN_250_rhum_159.txt.gz
RH
2 2 2 2 2 3 3 3 3 3 3 4 5 6 8 10 12 13 14 13 13 13 14 18 18 18 18 18 18 20 20 21 23 28 32 34 36 33 40 42 37 43 36 39 46 58 64 48 39 39 48 40 45 63
2 2 2 2 2 3 3 3 4 3 3 4 5 6 8 10 12 13 12 13 13 15 19 18 18 17 17 17 18 19 21 22 26 29 32 32 33 37 43 54 46 55 45 61 60 67 51 35 42 64 60 43 57 83
2 2 2 2 2 2 2 3 3 4 4 4 4 6 8 10 10 11 13 12 12 18 18 17 14 13 17 18 20 22 24 24 26 29 36 41 40 49 52 57 46 58 62 63 66 61 53 43 68 71 54 50 68 100
2 2 2 2 2 2 2 3 3 4 5 5 5 6 6 8 9 10 11 12 14 13 15 14 14 17 16 20 22 23 23 25 27 30 37 49 57 62 62 55 61 63 72 78 69 51 63 58 59 57 48 65 80 100
2 2 2 2 3 3 3 3 4 4 5 6 6 6 6 7 8 9 10 12 11 13 17 16 15 17 18 22 24 24 24 25 28 34 46 60 62 63 60 70 66 63 78 91 82 57 61 69 62 52 47 70 93 100
2 2 2 3 3 3 3 4 4 5 6 7 7 7 8 7 8 11 12 12 13 14 17 15 15 18 20 23 26 24 26 30 32 48 57 62 50 61 61 72 74 74 72 69 57 68 89 65 53 49 54 85 100 100
2 3 3 3 3 3 4 4 5 5 6 8 8 9 8 9 10 11 12 11 13 15 16 16 18 22 23 23 25 25 25 30 41 52 61 62 50 66 77 90 44 54 63 70 80 100 85 70 60 59 74 100 100 100
3 3 3 3 4 4 5 6 6 6 7 9 9 9 9 10 11 12 11 13 14 17 18 18 19 22 24 24 26 26 27 32 45 51 63 56 53 72 89 53 73 83 91 94 98 97 73 63 59 66 96 100 100 100
4 4 4 4 4 5 5 6 6 8 9 9 9 9 9 11 12 11 12 13 16 19 19 19 21 23 26 26 27 27 32 37 39 59 51 50 61 95 50 68 86 87 89 88 88 84 86 96 97 100 100 100 98 99
4 4 4 5 6 6 6 7 8 9 9 10 10 11 12 11 11 11 14 17 19 20 20 21 24 25 26 28 28 30 35 45 57 52 53 65 82 56 49 72 86 88 83 85 88 93 99 99 99 95 100 100 96 100
5 6 6 7 8 8 9 9 10 10 11 12 12 11 10 11 12 15 19 21 22 21 19 23 26 26 28 29 29 32 37 46 45 48 57 79 64 58 80 96 97 86 83 88 98 100 99 100 100 92 98 100 98 100
6 6 6 8 10 11 10 10 10 10 11 11 11 11 12 14 17 19 21 22 21 20 21 25 26 27 31 29 32 38 42 42 48 50 75 67 64 94 100 98 95 90 88 98 100 100 100 94 85 83 95 100 100 94
7 8 9 10 10 11 11 10 10 11 10 11 11 13 14 18 20 21 20 20 19 20 26 26 27 26 27 32 34 36 36 47 57 68 73 64 96 100 100 100 95 92 96 98 100 100 100 100 94 96 100 100 94 93
8 9 10 12 12 11 10 10 11 11 12 13 14 16 17 17 17 16 18 18 19 23 24 26 27 29 30 30 31 38 53 58 70 76 68 76 100 96 100 98 98 100 100 100 100 100 100 97 91 95 93 93 100 100
9 10 12 12 13 12 12 12 12 13 14 14 15 16 15 15 15 17 17 19 24 26 25 25 23 23 24 27 35 47 54 62 66 62 66 99 94 99 100 100 100 100 99 99 99 99 100 96 94 92 95 100 100 100
7 8 10 10 11 12 13 15 15 15 16 16 15 15 15 16 16 18 20 25 28 28 24 22 23 23 28 32 42 53 60 61 51 62 93 96 95 100 100 100 99 96 99 100 100 100 100 100 100 99 100 100 100 100
7 8 8 9 11 12 13 14 15 14 14 15 16 16 16 17 19 21 23 26 25 24 23 26 29 34 45 53 64 65 65 59 75 90 100 98 99 100 100 100 100 100 100 100 100 100 100 100 100 100 100 100 100 100
8 8 8 10 11 12 14 14 15 16 16 16 16 16 15 17 18 20 22 22 20 20 33 37 45 49 43 47 63 71 72 82 85 95 100 100 100 100 98 99 100 100 100 100 100 100 100 100 100 98 98 95 97 100
11 10 10 10 12 14 15 16 17 18 18 17 16 14 14 16 18 22 23 22 19 24 34 43 44 44 45 53 64 73 76 82 96 100 100 100 98 100 99 100 100 100 100 100 100 100 100 97 88 79 84 86 85 80
13 13 13 13 14 12 13 12 14 15 16 15 14 15 16 17 20 22 22 22 24 26 29 33 42 52 54 60 69 74 80 91 98 100 100 100 100 100 100 100 100 100 100 100 100 100 100 99 93 88 85 82 81 84
8 9 12 14 18 18 18 18 15 14 14 14 13 14 16 18 20 25 27 26 28 27 27 30 40 49 50 54 64 71 73 81 95 100 100 100 100 100 100 100 100 100 100 100 100 100 97 97 100 97 94 91 85 86
9 9 9 8 9 10 12 15 14 17 14 14 12 12 14 15 16 18 22 24 24 20 23 27 33 37 41 44 47 55 67 73 91 94 98 99 99 100 100 100 100 100 99 97 96 96 97 96 96 95 90 84 81 82
9 9 9 9 9 8 8 9 9 10 10 12 12 13 13 13 12 13 15 17 16 16 19 21 25 29 30 33 37 42 59 69 86 94 97 100 100 100 100 100 100 99 100 100 99 97 98 98 93 85 82 82 78 75
9 8 8 8 9 9 8 8 8 9 8 10 10 10 11 12 14 15 16 15 12 13 15 17 18 22 25 27 35 43 60 73 85 94 95 97 99 99 98 98 96 97 97 97 98 98 94 90 87 82 78 76 75 72
8 7 8 9 8 8 8 8 9 10 10 9 9 9 9 11 13 14 14 12 14 18 17 17 17 19 21 23 28 38 51 59 75 85 90 94 96 95 94 93 93 92 92 91 91 90 86 83 82 81 77 73 71 71
10 9 8 8 7 8 8 8 8 7 8 9 9 9 10 12 12 12 10 9 14 16 15 16 17 19 21 25 28 35 48 59 64 74 88 92 94 96 96 97 97 98 96 95 95 92 86 82 79 77 78 82 84 81
14 12 10 8 8 8 7 7 8 8 8 7 8 9 12 11 12 10 11 18 23 23 23 24 24 26 28 29 34 40 49 56 62 70 78 83 90 94 97 97 96 94 92 91 90 87 84 84 85 85 84 83 82 79
16 14 13 11 9 8 7 8 7 6 7 8 8 7 8 7 7 11 14 18 22 26 28 30 32 36 38 40 43 47 52 58 64 68 74 80 82 81 80 79 78 76 74 74 75 76 77 77 76 74 71 66 54 41
23 17 14 13 12 10 8 7 7 7 7 6 6 7 8 8 8 8 8 9 13 17 21 27 34 39 42 44 48 51 56 60 65 69 72 73 73 73 74 72 72 71 69 68 67 65 63 58 52 43 34 26 22 20
32 25 19 15 12 12 11 9 7 6 6 7 7 6 5 5 7 9 8 8 8 8 10 13 18 25 29 31 34 37 40 44 48 54 60 58 52 49 46 45 44 43 42 41 38 34 28 23 21 20 20 19 19 18
33 30 26 20 15 13 11 11 9 6 6 6 6 6 6 5 5 5 5 7 9 10 9 9 10 11 11 12 13 14 16 19 21 22 22 22 21 21 20 20 19 19 19 20 19 19 18 18 17 17 17 17 17 16
39 36 32 27 21 15 12 11 10 9 6 5 5 6 6 5 4 4 5 4 4 6 7 8 8 8 9 9 10 10 10 11 12 12 12 12 13 13 13 14 14 14 14 14 14 15 15 15 15 15 15 15 16 16
34 32 28 29 27 21 15 12 10 9 8 6 5 5 5 5 5 4 4 4 3 4 4 4 5 7 8 9 9 9 10 10 10 10 10 10 10 11 11 11 11 12 12 12 13 13 13 14 14 15 16 18 18 18

GFSWCAN_250_rhum_162.txt.gz
RH
3 2 2 2 3 3 3 3 3 3 3 3 3 4 5 5 6 7 7 7 8 9 8 11 12 15 16 17 17 17 16 18 20 22 26 28 34 37 37 29 31 34 34 30 27 36 56 33 48 53 42 45 47 40
2 2 2 2 2 2 2 2 2 3 3 3 3 4 4 5 6 7 8 9 9 9 10 11 14 17 18 17 17 16 18 18 21 24 26 24 29 28 32 36 32 34 32 35 31 36 46 65 55 42 47 44 60 62
2 2 2 2 2 2 2 2 2 2 3 4 4 4 4 5 6 7 8 8 9 10 10 15 18 17 17 16 16 16 17 19 22 24 25 26 28 29 33 34 32 40 33 41 45 66 80 62 50 42 51 52 70 57
2 2 2 2 2 2 2 2 2 2 3 3 5 4 4 5 6 7 8 9 9 11 14 17 18 18 16 16 16 17 20 21 24 25 27 30 28 33 33 36 44 33 44 53 72 74 46 38 38 44 64 64 52 60
2 2 2 2 2 2 2 2 2 3 3 4 5 5 5 5 6 7 8 9 10 12 17 19 17 15 16 16 17 18 22 22 24 26 30 32 31 31 33 48 54 45 54 73 75 51 44 52 49 63 61 62 60 73
2 2 2 2 2 2 2 3 3 3 3 4 5 6 5 5 5 6 6 7 10 14 17 14 13 14 16 17 19 20 22 23 27 29 34 36 29 37 49 77 49 51 67 78 65 44 66 87 92 81 60 56 65 98
2 2 2 2 2 2 3 3 3 3 4 4 5 6 6 6 7 7 9 14 14 13 15 15 15 16 17 18 21 21 23 26 28 33 40 37 34 47 74 86 32 60 78 83 87 55 66 93 98 71 56 64 70 100
3 3 3 3 3 3 3 3 3 4 5 5 6 6 6 7 8 10 10 11 16 17 17 17 16 15 18 21 24 24 25 28 34 43 45 40 44 74 91 37 60 78 78 79 63 76 90 100 90 70 63 63 78 100
3 3 3 3 3 3 4 4 5 5 5 5 6 8 8 9 10 11 11 13 16 18 18 15 18 20 21 22 23 25 26 30 37 45 36 39 65 93 40 56 59 72 74 70 77 98 100 97 77 65 63 66 98 100
4 4 4 4 5 5 6 6 6 6 7 8 9 10 10 10 10 12 15 17 19 18 16 17 18 22 23 24 24 26 28 31 34 32 37 58 54 50 61 58 70 85 76 82 100 100 99 96 99 97 97 98 100 100
5 5 5 6 6 7 7 8 8 9 10 10 11 11 11 12 14 16 18 20 19 16 16 20 22 23 25 26 24 24 27 32 29 35 49 55 52 64 69 62 78 88 86 99 94 87 90 96 98 95 92 92 96 100
7 8 8 9 10 10 11 12 12 11 10 10 11 11 13 14 17 18 20 18 15 16 20 22 23 24 24 24 27 28 28 32 36 44 58 57 61 67 64 69 91 97 90 91 83 92 100 100 100 100 99 83 87 96
9 9 9 9 9 9 9 10 10 11 11 11 10 13 14 16 15 14 14 15 17 17 21 22 23 23 24 25 28 32 37 41 44 62 71 51 53 58 60 80 99 94 88 87 90 96 98 100 99 94 90 76 85 98
9 10 10 10 10 11 11 10 10 11 11 12 13 15 15 14 13 14 14 14 15 19 20 22 23 23 24 26 30 33 42 52 59 59 38 38 54 61 65 81 91 92 86 87 87 95 100 99 95 100 100 100 100 99
9 9 10 11 12 12 11 10 10 11 12 13 13 12 12 13 14 14 13 17 23 23 24 24 23 23 23 23 26 36 41 53 51 30 31 49 58 68 84 86 85 85 84 91 100 96 94 99 100 100 99 99 98 99
7 8 10 12 12 12 12 12 11 11 11 11 10 11 12 13 13 14 18 22 22 24 22 22 23 24 25 26 29 30 38 37 31 33 41 61 68 93 97 92 85 86 91 98 100 100 100 100 100 100 100 100 100 100
8 8 9 11 11 10 11 11 10 10 10 11 12 12 13 13 14 17 20 20 19 19 19 21 20 21 27 32 37 45 47 48 44 47 57 73 86 95 97 93 89 89 90 85 82 92 94 87 85 86 87 87 90 98
9 10 10 9 11 11 11 12 12 11 12 12 13 13 13 14 15 16 17 18 18 18 21 24 30 36 36 33 40 48 46 42 42 55 72 88 99 98 99 98 94 94 87 89 96 97 96 99 100 100 100 98 98 100
10 11 11 11 11 11 11 11 12 13 13 13 13 14 14 15 16 17 18 19 20 24 33 34 32 30 37 40 46 50 50 49 50 64 79 87 95 97 97 96 97 100 100 98 96 96 100 100 100 100 99 98 100 100
8 8 10 11 12 12 14 14 11 11 11 11 12 13 14 14 15 16 18 20 22 25 34 35 39 44 45 45 47 48 48 47 52 66 74 86 91 93 98 100 99 98 100 100 99 97 99 100 98 95 95 95 98 100
8 8 9 9 9 10 12 13 14 16 15 15 14 13 13 13 13 14 17 17 18 21 26 33 37 39 44 49 46 46 50 55 55 64 69 80 92 92 94 98 100 100 100 100 96 94 94 95 94 96 99 100 100 100
8 8 8 8 9 9 9 8 8 9 10 11 11 13 13 13 14 14 14 16 15 15 18 24 32 37 44 56 59 47 46 56 59 64 66 74 89 95 96 98 98 98 100 98 97 96 94 94 99 100 100 98 96 92
10 10 9 9 8 8 9 9 9 8 8 8 8 8 10 11 12 15 16 16 14 15 16 17 20 25 31 37 39 37 37 42 53 58 67 72 81 89 92 94 93 92 94 94 95 94 93 95 99 99 99 97 94 95
10 10 10 10 9 9 8 8 8 8 8 8 8 8 8 8 9 11 12 12 12 13 15 16 17 18 21 23 21 21 26 31 37 46 52 67 75 81 86 87 90 93 94 94 94 95 94 93 92 91 94 98 100 100
14 12 10 9 9 9 9 9 8 8 8 8 9 8 8 10 10 9 8 7 8 10 12 13 15 17 18 20 19 18 19 23 26 28 32 40 55 62 68 79 86 88 91 92 92 94 97 97 98 100 99 99 100 98
26 19 16 14 11 9 8 8 8 8 8 8 8 8 8 9 8 8 7 9 11 12 12 12 12 13 13 14 16 18 18 20 22 22 29 36 45 56 66 80 91 93 92 96 100 100 100 100 100 99 98 96 93 91
44 38 28 18 16 14 12 10 8 7 8 8 7 7 7 7 6 7 9 10 11 12 13 13 13 13 14 14 15 17 19 21 22 26 33 41 48 54 60 65 72 81 92 98 100 100 100 99 98 97 96 91 83 79
45 45 39 32 26 19 15 13 12 10 7 7 7 7 6 6 6 7 7 7 8 10 12 14 16 17 18 19 21 23 24 26 27 30 34 40 46 54 60 67 73 77 80 85 90 90 90 89 88 87 86 83 78 67
38 39 41 40 34 28 22 16 13 12 11 9 7 6 6 7 7 5 5 5 7 7 8 8 8 12 15 18 20 23 29 34 39 42 45 50 54 58 63 67 71 75 81 79 75 72 68 64 60 56 53 50 44 37
24 27 31 34 36 34 30 23 17 14 12 11 10 7 6 6 7 6 6 5 5 5 7 8 9 9 9 9 10 13 18 23 29 34 38 40 43 46 47 49 50 52 51 51 50 48 45 41 36 30 26 24 22 21
26 22 22 25 28 29 28 28 26 18 13 12 11 9 7 5 5 6 6 6 5 4 4 4 6 7 8 8 8 9 10 13 14 15 17 20 22 25 26 27 28 28 26 24 24 23 23 21 19 18 18 18 17 17
31 24 20 20 20 23 27 25 24 22 17 14 11 10 9 7 5 5 6 5 6 6 5 4 5 5 5 6 8 10 11 11 11 12 12 13 13 14 14 14 15 15 15 16 16 16 16 16 16 15 15 15 15 15
42 31 24 20 18 18 20 23 24 23 19 16 13 11 9 8 7 5 5 5 5 5 5 4 4 4 4 5 5 5 6 7 9 10 11 11 12 12 13 13 13 13 13 13 14 14 14 15 15 15 15 15 16 16

GFSWCAN_250_rhum_165.txt.gz
RH
3 3 3 3 3 4 4 4 4 3 3 3 3 4 4 4 4 5 6 6 6 6 6 7 9 10 9 9 10 11 12 14 16 16 17 18 20 20 23 24 23 26 36 51 40 36 36 32 30 42 52 50 51 56
3 3 2 2 2 2 2 3 3 3 4 4 4 4 3 4 4 5 6 6 6 7 6 7 9 10 9 12 12 12 14 15 17 17 18 18 20 20 22 25 27 39 49 33 26 30 40 52 38 43 49 57 59 46
2 2 2 2 2 2 2 2 2 3 3 3 4 4 4 4 4 5 5 6 6 5 6 8 10 10 13 14 15 14 15 16 18 20 21 22 22 24 26 26 24 37 28 28 32 35 43 53 42 41 53 50 52 46
3 3 2 2 2 2 2 2 2 2 3 3 3 4 4 4 4 4 5 6 6 8 9 9 12 15 16 17 15 16 17 18 20 21 21 20 20 22 22 23 28 28 32 34 47 39 44 41 46 66 57 76 67 66
2 2 2 2 2 2 2 2 2 2 3 3 3 3 4 5 5 5 5 6 7 7 9 12 14 15 17 18 16 17 18 20 21 22 21 20 20 21 22 29 33 27 39 45 42 52 52 51 77 79 72 83 62 69
2 2 2 2 2 2 2 2 2 2 3 3 3 4 4 5 5 4 4 5 7 8 9 12 17 19 18 17 16 18 20 20 21 21 21 22 21 24 30 45 31 35 33 36 48 66 64 66 91 78 91 100 77 72
2 2 2 2 2 2 2 2 2 3 3 3 3 4 5 6 6 6 7 8 9 10 13 16 20 21 17 14 16 18 19 19 20 22 22 22 25 35 52 62 18 28 47 72 85 77 61 74 81 72 75 95 71 62
3 3 2 2 2 2 2 3 3 3 3 4 4 5 5 6 6 6 8 9 11 13 15 19 20 17 17 19 17 17 19 23 24 25 25 25 34 54 75 17 34 68 72 75 84 74 51 82 81 84 95 94 67 63
3 3 3 3 3 3 3 3 3 3 4 4 5 6 6 6 7 8 9 11 13 15 17 15 13 16 16 16 19 20 21 26 27 28 26 29 44 72 25 41 70 70 75 72 75 73 89 89 86 97 95 72 63 70
4 4 3 3 3 4 4 4 4 4 5 5 6 6 7 8 9 10 13 15 17 17 15 14 14 16 17 19 21 21 24 27 28 25 28 44 46 40 40 56 68 70 71 75 80 92 96 94 100 100 93 80 75 75
4 4 4 5 5 5 5 5 6 7 8 10 11 10 11 11 12 14 15 16 17 17 13 17 18 18 19 20 22 23 25 26 27 28 36 46 35 56 57 58 69 74 74 82 87 100 99 100 99 100 100 90 80 78
6 5 6 6 6 6 6 7 7 8 9 10 11 12 12 12 14 15 16 17 15 12 17 20 19 19 20 22 23 24 25 26 28 34 36 36 46 58 63 67 71 74 78 79 88 100 99 100 100 100 100 100 87 85
7 7 7 7 7 7 8 9 10 11 12 12 12 12 13 14 15 13 11 10 13 18 18 16 17 20 22 24 25 26 28 28 25 28 30 32 44 55 66 68 61 65 71 71 88 95 96 98 99 98 94 97 98 94
8 8 9 8 8 8 9 9 9 9 10 11 13 13 15 13 12 11 12 14 14 15 17 19 21 22 22 23 24 26 28 27 31 39 39 64 66 63 65 65 59 73 75 76 86 85 99 100 100 100 100 98 93 82
8 8 8 8 10 10 10 9 10 10 10 12 12 12 12 13 14 16 16 15 18 20 20 20 21 21 23 23 24 27 30 35 33 33 43 46 48 48 48 56 67 85 86 88 85 83 87 94 100 100 99 99 95 90
10 10 9 8 9 10 10 10 10 10 10 10 10 11 12 13 13 13 16 19 18 18 18 20 22 23 24 26 27 28 34 31 26 31 39 46 51 47 46 56 74 89 90 88 83 81 87 95 96 98 96 92 92 92
8 8 10 9 8 8 9 10 10 10 11 12 11 12 13 13 14 15 17 16 16 17 18 21 23 25 26 28 28 30 32 38 43 42 38 39 48 50 53 64 72 79 84 86 84 86 98 94 94 87 84 89 90 99
7 8 9 9 10 9 9 8 8 8 9 10 11 11 12 13 14 15 14 15 16 18 22 23 26 28 29 29 30 31 30 31 33 36 36 39 46 50 58 67 77 79 86 88 84 90 95 91 85 90 97 96 92 87
9 10 9 9 10 10 10 10 9 9 9 10 11 11 12 14 15 15 15 17 18 22 25 25 26 25 23 24 29 34 38 37 37 36 39 45 52 54 65 74 79 82 86 85 85 87 89 78 78 82 78 78 77 79
8 9 9 10 10 10 10 10 9 9 10 11 11 11 12 12 14 14 15 16 17 19 22 24 27 33 37 36 36 37 35 36 38 41 43 49 53 58 65 76 78 81 84 87 89 88 89 84 82 81 74 75 80 84
9 9 9 9 9 9 9 10 9 10 10 10 11 11 11 11 11 12 14 15 18 20 19 20 25 27 28 33 35 39 42 46 48 46 46 50 56 66 72 81 83 82 83 83 86 86 88 91 89 85 82 80 81 84
10 9 9 9 9 9 8 8 9 9 8 8 9 8 8 10 11 11 10 11 13 16 20 23 20 24 30 33 38 42 45 47 44 45 44 52 55 64 72 79 86 88 87 86 84 82 82 87 91 90 90 90 91 93
16 13 12 10 9 8 9 9 9 8 8 8 8 9 9 9 8 8 9 10 11 12 14 17 20 23 24 26 31 36 36 35 36 38 37 37 45 55 60 64 66 73 84 88 88 84 86 86 88 92 95 95 93 95
27 22 18 17 14 12 11 10 8 8 8 8 8 8 10 10 10 9 8 8 8 10 12 14 18 20 23 24 26 26 27 28 27 30 34 34 36 40 52 61 61 61 69 77 86 90 91 91 91 92 94 95 97 100
44 42 34 26 18 16 15 14 12 10 9 8 8 8 8 8 8 8 7 8 10 11 11 10 10 10 12 14 16 20 22 23 24 22 23 23 25 29 34 42 52 63 64 67 76 87 92 93 94 94 95 97 98 99
27 33 37 39 37 33 24 16 14 14 13 11 9 8 8 7 7 8 8 9 10 11 11 12 11 10 10 10 10 10 11 13 14 14 15 18 19 21 26 32 37 40 45 55 66 71 76 83 87 93 95 97 99 98
32 25 25 30 35 37 36 30 24 18 14 13 12 10 9 8 7 7 6 6 7 8 8 9 11 11 12 12 13 12 13 14 14 15 15 15 16 18 20 23 24 29 35 41 47 55 64 71 77 80 81 84 89 92
44 34 27 23 23 28 32 36 34 28 20 16 14 12 11 8 8 7 8 7 6 6 6 7 7 8 9 11 13 15 15 15 16 16 17 17 18 19 22 26 30 35 40 44 49 55 61 67 73 78 79 77 77 82
58 48 34 26 22 21 24 26 30 33 29 21 16 14 12 11 9 7 6 7 7 7 6 5 5 6 7 8 9 10 12 15 18 20 22 24 25 26 28 29 31 35 39 42 47 52 57 60 62 68 73 76 75 67
69 60 48 34 26 21 19 20 23 28 31 28 20 15 13 12 11 9 7 6 5 6 6 7 6 5 5 5 6 7 8 9 11 12 13 14 18 22 25 30 34 36 39 43 47 50 54 56 57 54 48 41 36 32
87 68 50 44 34 24 18 16 18 20 26 29 26 20 15 11 11 11 10 7 5 5 5 6 6 6 5 5 5 5 5 6 8 9 10 11 12 13 15 17 19 20 22 23 23 24 24 24 24 23 22 21 20 19
77 81 57 43 38 33 24 16 15 16 19 23 26 24 19 14 12 10 10 9 7 5 5 5 5 5 5 5 5 5 5 4 5 5 6 7 9 10 11 12 13 14 14 14 15 16 16 16 17 17 17 17 17 18
69 67 57 50 40 35 31 24 16 13 14 16 20 23 21 16 13 10 10 9 8 7 5 4 4 4 5 5 5 5 4 4 5 5 5 5 6 6 7 8 9 11 12 12 13 14 15 16 16 17 17 17 17 18

GFSWCAN_250_rhum_168.txt.gz
RH
5 4 4 4 3 3 4 3 3 3 3 4 4 4 4 4 4 5 6 6 7 8 9 9 9 9 10 10 10 9 9 11 13 13 13 12 12 13 14 15 16 16 19 23 23 26 49 38 31 48 49 37 40 43
3 3 3 3 3 2 2 3 3 3 3 3 4 4 5 5 5 4 4 4 4 6 8 8 8 9 10 10 10 10 12 14 13 13 12 12 14 16 17 18 16 20 21 23 24 27 41 49 50 38 38 50 48 57
3 2 2 2 2 2 2 2 2 2 2 2 3 3 4 4 4 4 4 4 4 5 5 6 8 9 11 10 10 12 14 12 12 14 15 16 18 18 18 20 19 22 22 24 28 43 65 60 44 36 41 54 69 73
2 2 2 2 2 2 2 2 2 3 2 3 3 3 3 3 4 5 5 4 4 5 6 6 7 9 10 11 12 14 13 12 14 19 20 19 18 19 19 21 23 25 28 32 51 41 49 44 54 49 50 69 87 91
2 2 2 2 2 2 3 3 3 3 3 2 2 3 3 3 4 5 4 5 5 5 6 6 8 10 10 13 14 13 15 16 18 21 21 20 19 19 21 28 31 25 28 32 32 30 46 53 62 57 77 85 77 73
2 2 2 2 2 2 2 2 2 2 2 2 3 3 3 4 4 4 6 6 5 5 6 8 10 12 13 16 15 16 16 17 20 22 22 21 18 22 26 27 24 23 22 28 36 57 64 54 57 90 98 88 83 75
2 2 2 2 2 2 2 2 2 2 2 2 3 3 4 4 5 5 6 6 6 6 7 10 13 13 14 16 19 19 18 22 24 25 22 19 20 26 26 25 14 25 40 67 81 83 72 54 75 99 88 85 83 73
2 2 2 2 2 2 2 2 2 2 3 3 3 4 4 4 5 7 7 7 7 8 9 11 15 19 20 20 20 22 23 25 26 23 20 19 24 29 26 14 43 64 80 82 66 79 70 71 94 95 88 94 84 76
3 3 3 3 3 3 3 3 3 4 4 4 4 4 5 6 7 7 8 6 7 9 12 14 17 21 23 21 21 20 20 22 21 19 18 25 32 33 15 28 56 70 67 59 57 70 74 74 92 99 100 95 83 92
3 3 3 3 3 3 3 3 4 3 4 4 4 4 5 6 8 7 7 7 9 12 16 18 18 24 22 19 18 19 20 22 21 18 26 32 33 23 23 38 46 58 58 77 87 91 92 75 89 84 87 92 100 100
4 4 4 4 4 4 4 4 4 5 6 6 7 8 8 8 8 8 10 11 13 16 17 21 23 20 20 20 20 20 20 21 22 26 27 24 20 35 33 33 50 64 69 84 85 82 76 75 87 84 92 100 100 98
4 4 4 5 5 5 5 5 5 5 6 7 8 9 9 9 10 11 12 12 14 14 17 19 18 18 17 17 19 20 22 22 22 25 25 24 32 35 32 36 48 60 69 82 82 78 77 85 88 98 99 100 99 93
5 6 6 5 6 6 6 6 7 8 8 9 8 8 10 11 11 11 12 12 14 17 20 18 16 16 17 20 22 24 24 22 24 27 26 26 30 32 36 36 42 53 63 77 81 71 81 92 94 98 100 100 100 100
7 7 7 7 8 7 8 8 8 8 10 10 12 12 12 12 13 13 14 16 15 18 17 15 17 19 21 22 22 22 22 24 28 29 29 36 47 53 54 51 48 59 68 78 82 73 84 94 98 100 100 100 100 100
8 7 7 8 8 9 9 9 10 10 9 10 10 9 9 11 12 14 14 15 16 16 16 18 19 21 22 22 24 26 27 29 28 28 32 36 43 44 50 57 60 65 69 71 77 77 86 96 100 100 100 100 100 100
8 9 9 8 8 8 9 10 10 10 9 9 10 11 11 12 12 13 13 14 15 16 17 17 19 22 24 25 28 28 29 27 26 32 36 35 33 38 42 52 58 59 61 62 70 76 86 96 100 100 100 100 99 100
9 10 11 11 10 9 8 8 9 10 11 11 11 12 11 11 12 13 13 13 12 13 15 17 21 26 26 28 29 30 30 32 33 37 43 41 41 45 50 52 53 53 56 53 65 75 88 92 91 100 100 100 98 100
10 10 10 10 11 12 12 12 10 10 10 10 10 10 11 12 13 14 12 12 14 16 19 22 25 26 26 29 32 33 35 32 32 35 40 43 46 45 47 51 46 44 49 55 65 82 88 94 89 89 96 99 94 94
9 9 10 11 12 13 12 12 13 14 14 14 13 12 12 12 12 12 13 13 16 19 20 21 22 22 22 24 26 28 30 31 34 35 36 35 37 42 47 49 46 46 54 61 68 82 85 89 91 91 98 99 99 98
10 10 10 10 10 10 11 12 14 15 14 14 13 13 13 13 12 12 12 14 16 17 16 17 18 21 24 26 28 28 29 29 30 31 32 33 38 44 49 52 54 53 59 67 72 80 85 88 88 92 94 94 92 80
16 13 12 11 10 10 10 10 10 10 11 12 13 13 12 12 12 12 12 11 12 14 15 16 18 20 21 21 22 24 25 28 30 34 37 40 44 47 50 55 60 60 60 68 78 89 90 89 86 87 86 87 85 81
36 29 22 18 14 11 10 10 10 10 10 11 10 10 10 11 12 12 12 12 12 14 15 17 19 19 18 19 22 24 27 33 38 41 45 50 51 49 49 52 54 53 56 60 65 81 89 89 92 92 90 87 84 82
34 38 41 35 29 23 19 15 12 11 10 10 10 10 10 10 10 11 11 12 14 14 15 15 15 15 17 21 23 25 31 35 39 41 42 46 50 50 48 49 52 53 53 56 61 69 80 78 82 89 90 90 91 90
32 29 31 36 39 39 34 29 22 18 15 12 11 10 10 11 10 10 10 12 14 14 14 14 15 16 17 18 18 17 19 24 28 33 37 37 36 39 44 45 43 44 48 54 58 60 69 72 72 77 82 85 87 89
46 40 34 29 29 30 36 40 38 34 26 20 17 14 11 10 9 10 10 10 9 11 12 14 14 14 14 14 15 17 20 23 24 23 26 29 29 29 28 29 29 33 35 39 43 50 61 71 74 72 71 76 82 86
74 59 46 38 32 28 27 27 34 39 40 33 27 22 18 15 12 9 8 9 10 9 9 9 10 11 12 12 12 14 15 16 16 15 16 16 16 15 15 15 16 19 22 24 26 32 39 46 54 63 70 74 78 83
87 72 60 52 43 36 31 26 24 26 33 38 37 31 25 18 15 13 12 9 8 8 9 9 8 8 8 9 11 12 14 14 14 15 16 17 18 18 18 21 21 21 22 23 23 24 28 34 40 45 49 53 59 65
82 78 69 64 58 47 40 34 28 23 21 25 30 36 34 27 20 15 12 12 11 8 8 8 8 8 8 7 7 8 9 11 14 16 17 16 15 15 16 17 19 20 21 23 25 27 29 34 39 41 43 45 49 54
81 80 73 60 56 53 47 40 33 27 22 19 20 23 29 32 29 21 16 12 11 11 10 7 6 7 7 7 7 7 7 7 8 9 11 14 16 18 20 22 24 24 25 25 26 27 28 30 33 36 38 41 45 51
74 69 72 66 57 49 47 45 39 32 25 20 17 17 19 24 28 27 22 16 11 11 10 10 7 6 6 6 6 6 6 6 6 6 8 9 10 12 13 16 19 21 23 26 28 31 33 35 37 39 40 41 42 43
74 70 70 70 63 54 43 39 36 34 28 23 18 16 15 16 19 24 24 22 16 11 10 10 9 7 6 5 6 6 6 6 5 5 5 6 6 8 9 10 11 12 14 16 18 19 20 20 22 23 24 25 25 24
63 65 62 60 60 61 55 43 35 30 26 23 20 16 14 14 14 16 19 21 20 15 10 9 9 9 7 5 5 5 6 6 6 5 5 5 5 6 6 7 8 8 9 10 11 12 14 15 16 17 18 19 20 20
64 56 57 59 53 54 51 46 40 29 23 21 20 17 14 13 12 12 13 16 18 17 12 9 9 9 8 6 5 4 4 5 5 5 5 5 5 5 6 6 6 7 7 7 8 8 9 9 10 12 13 13 13 14

GFSWCAN_250_rhum_171.txt.gz
RH
6 6 5 4 4 3 3 4 4 4 4 4 4 4 4 4 4 4 4 4 5 5 7 7 8 9 10 10 10 12 11 10 10 11 12 13 15 14 15 16 14 13 13 14 13 17 22 22 22 23 39 44 51 48
4 4 4 3 3 3 3 3 3 3 3 3 3 3 3 4 4 4 4 4 4 5 6 6 7 8 9 9 11 11 11 10 12 12 13 16 14 15 14 13 11 13 13 16 18 20 22 26 27 29 40 47 53 71
3 3 3 3 3 3 3 3 2 2 2 3 3 3 3 3 3 3 5 4 6 7 7 7 7 5 7 9 11 11 11 12 12 14 15 14 14 13 12 13 13 17 17 19 20 22 26 32 37 33 45 68 71 47
3 3 2 2 2 2 2 2 2 2 2 2 3 3 3 3 3 4 4 4 6 6 6 5 5 5 5 7 9 9 11 12 14 15 14 14 13 14 14 16 19 19 18 18 23 23 27 34 37 50 58 48 53 76
2 2 2 2 2 2 2 2 2 2 2 3 3 3 3 3 4 4 4 5 5 6 6 6 6 6 7 8 8 9 10 12 13 13 14 16 14 15 18 23 20 18 17 22 23 21 50 49 63 58 42 53 75 95
2 2 2 2 2 2 2 2 2 2 3 3 3 3 3 3 3 4 4 4 5 6 6 6 5 5 7 8 8 10 12 12 14 15 21 20 16 20 24 25 18 17 18 32 38 63 83 56 49 41 52 64 79 98
3 2 2 2 2 2 2 2 2 2 2 3 3 3 3 3 3 3 3 4 4 6 6 6 6 7 8 10 13 14 12 14 20 20 20 17 18 27 26 23 12 20 38 41 34 53 52 37 51 74 69 86 96 93
3 2 2 2 2 2 2 2 2 2 3 3 3 3 3 3 4 4 5 5 6 6 6 7 7 8 10 13 13 14 19 21 18 20 19 16 26 26 23 11 35 36 32 34 37 41 37 45 51 62 88 98 92 83
3 2 2 2 2 2 2 2 2 2 2 3 3 3 4 4 5 5 6 6 7 8 8 8 10 12 14 17 20 20 18 18 21 20 16 26 25 17 11 34 37 36 38 42 45 42 41 52 66 73 95 89 82 78
3 3 3 3 2 2 2 3 3 3 3 3 3 4 4 4 5 5 6 6 7 8 9 10 10 10 12 15 15 17 20 22 22 15 23 20 16 19 24 46 45 45 38 43 48 51 66 64 68 80 90 92 91 81
4 4 4 4 3 3 3 3 3 3 4 4 4 4 5 6 6 8 9 10 12 12 13 13 14 16 16 18 19 20 21 22 19 19 19 17 20 24 26 34 43 47 41 48 54 68 74 70 74 88 93 79 84 97
6 5 4 4 4 4 4 4 4 4 4 5 5 6 7 8 10 10 9 9 12 11 13 14 14 14 16 16 17 18 18 18 18 21 18 22 24 23 24 34 44 45 45 55 68 75 78 75 76 86 85 90 98 96
5 6 7 6 6 6 6 6 6 6 6 6 6 6 7 7 8 8 8 8 10 12 13 14 16 15 16 18 18 18 18 17 21 20 20 26 28 31 30 32 43 48 49 56 67 77 83 82 78 78 87 90 95 97
7 6 6 7 7 7 8 8 8 8 7 6 7 7 8 8 9 10 10 12 13 13 14 14 15 15 17 20 19 21 19 22 23 21 23 28 32 34 36 35 39 48 52 62 71 81 90 90 81 79 89 94 98 100
8 8 7 7 8 8 8 8 8 8 9 9 9 9 10 10 11 10 11 12 12 13 13 14 15 18 22 19 20 21 23 22 22 24 27 32 34 34 34 34 36 41 49 56 65 76 81 78 75 80 90 96 100 100
8 9 11 10 8 9 9 9 9 9 10 10 10 10 11 10 10 10 12 12 13 13 14 15 16 18 17 19 23 25 25 24 26 31 32 32 32 31 29 27 29 34 40 50 59 66 72 71 70 76 84 95 99 100
9 10 10 10 11 12 11 10 9 10 11 11 11 12 12 11 12 12 12 14 14 15 15 15 16 20 20 23 25 24 24 23 27 32 33 34 33 31 36 40 40 44 50 60 65 66 66 69 72 81 90 95 95 99
9 9 9 10 11 11 11 12 13 13 12 11 11 12 11 11 11 11 12 13 13 14 16 17 19 20 20 21 24 22 23 24 26 30 36 35 35 35 37 38 42 49 54 54 54 59 61 62 68 80 87 94 96 100
12 11 11 10 10 10 10 11 12 12 12 12 12 12 13 13 12 12 12 12 13 14 15 15 15 15 16 18 19 20 20 22 25 27 29 34 40 42 44 46 51 56 61 57 51 52 58 58 65 77 85 96 99 98
27 21 16 14 12 11 11 11 11 10 10 10 10 12 12 12 12 13 13 13 13 14 15 15 15 17 18 18 19 22 23 24 24 26 28 31 33 36 38 40 45 49 52 55 51 52 56 59 66 78 89 94 96 98
33 38 37 33 24 19 16 15 13 13 12 12 11 11 10 10 10 11 11 12 13 14 14 14 15 16 16 18 20 21 20 21 23 27 27 27 30 34 36 40 44 46 45 46 47 51 57 61 66 73 87 91 95 99
36 31 30 32 40 41 34 28 22 18 16 14 12 12 12 12 13 12 12 12 12 13 14 14 14 15 16 16 16 18 23 26 28 28 29 30 32 34 37 40 44 45 45 47 48 50 56 63 67 72 77 84 88 93
58 46 39 32 29 28 31 37 39 34 28 22 19 17 14 12 11 12 12 12 12 12 12 12 13 14 16 16 16 18 20 19 19 24 29 31 32 36 40 42 44 42 41 44 45 47 49 50 54 62 64 67 79 88
78 78 65 53 45 39 30 27 27 31 36 40 36 29 22 19 17 15 12 11 12 12 12 12 12 12 12 14 15 16 17 18 19 20 22 23 24 28 32 35 37 40 44 46 42 38 38 40 46 56 55 59 66 78
85 84 84 76 70 57 49 42 34 28 25 25 30 37 37 34 25 20 17 16 14 12 11 11 11 11 12 13 12 12 12 14 16 18 20 23 24 26 28 30 32 34 35 35 33 29 27 27 29 36 46 53 54 57
93 92 91 87 82 73 65 57 48 40 34 30 24 23 25 30 34 32 26 21 17 16 14 12 10 10 11 11 11 11 13 14 15 15 15 16 16 16 17 18 19 22 25 24 24 24 27 31 31 32 34 40 45 50
95 92 94 99 97 90 84 74 66 57 45 39 34 27 22 21 21 24 29 30 28 22 17 14 13 12 10 9 9 10 10 11 11 13 14 15 15 15 16 17 18 19 21 24 26 26 26 25 24 23 26 28 31 35
98 90 84 87 89 88 82 77 71 64 57 46 39 35 30 23 19 18 19 23 27 28 26 20 15 12 12 10 8 8 8 9 9 9 10 11 12 15 17 17 18 19 19 19 19 18 19 20 20 21 22 23 25 28
98 94 85 83 80 80 74 70 68 63 61 52 43 36 32 29 23 18 16 16 17 21 24 26 23 16 12 11 10 9 7 7 8 8 8 8 8 8 10 13 16 17 19 20 22 22 23 25 26 28 28 29 31 33
89 90 82 78 76 74 66 62 62 62 58 55 45 36 30 28 26 22 18 15 14 14 16 20 24 22 15 11 10 10 9 6 6 6 7 7 8 7 7 8 9 10 12 14 16 17 19 21 23 24 26 27 28 29
86 92 83 76 68 62 54 49 49 52 50 45 40 34 30 26 20 21 20 16 14 13 13 14 19 21 20 15 10 10 10 8 6 5 5 6 6 7 7 7 7 7 8 8 9 10 11 12 13 14 15 16 16 17
62 69 71 74 64 55 49 41 34 37 41 37 31 28 24 23 21 19 17 15 13 12 12 11 14 17 18 17 12 10 9 9 8 6 5 5 5 6 6 6 6 6 6 7 7 7 8 8 9 10 11 11 11 12
60 58 55 55 52 43 37 36 31 26 27 27 25 22 20 20 19 18 16 14 12 11 10 10 11 14 16 16 14 10 9 8 8 7 5 4 4 5 5 5 5 6 6 6 6 6 6 7 7 7 8 8 8 8

GFSWCAN_250_rhum_174.txt.gz
RH
22 15 11 9 8 6 5 5 5 4 4 4 4 3 4 4 4 4 5 5 5 6 6 6 6 6 6 7 7 7 8 8 12 10 11 12 12 13 15 18 16 14 13 14 12 11 14 14 13 13 16 17 19 23
10 9 7 6 5 4 4 4 4 3 3 3 3 3 3 3 3 3 4 3 4 5 5 5 5 5 6 6 7 8 9 10 9 10 11 12 13 16 17 15 13 14 12 13 14 12 12 14 14 14 17 20 23 30
5 5 4 4 4 4 4 3 3 3 3 3 3 3 3 3 3 3 4 3 4 4 4 4 4 5 6 6 6 7 8 9 9 11 13 15 16 16 14 15 14 13 12 12 11 13 13 16 16 16 22 27 31 42
4 4 4 3 3 3 3 3 3 2 2 2 2 2 3 2 3 3 3 3 4 4 4 4 5 6 7 7 8 9 9 8 10 11 14 16 16 16 13 16 15 12 11 12 16 15 17 18 19 23 28 33 48 54
3 3 3 3 3 3 2 3 2 2 2 2 2 3 3 3 3 3 3 4 4 4 3 4 6 7 7 7 6 6 6 6 9 13 16 15 14 13 14 15 14 12 13 17 20 18 26 24 28 33 29 33 44 70
3 3 2 2 2 2 2 2 2 2 2 2 2 2 3 4 4 4 4 4 4 4 4 5 5 6 6 6 6 6 7 7 10 12 14 13 12 14 17 17 10 12 20 29 22 29 31 22 26 23 35 55 73 66
3 3 3 2 2 2 2 2 2 2 2 2 2 2 3 3 3 3 4 4 4 4 4 5 6 7 7 7 7 8 8 10 12 13 14 12 12 20 18 13 9 23 33 32 23 38 34 26 31 45 57 64 49 54
3 3 3 2 2 2 3 2 3 3 2 2 2 2 3 3 4 4 4 4 4 5 5 6 8 8 7 8 9 10 11 13 15 16 13 12 17 18 14 10 29 26 24 23 24 31 31 33 42 46 41 43 48 59
3 3 3 3 3 3 3 3 3 3 3 3 3 3 3 3 3 4 4 4 6 6 7 7 7 7 8 8 9 10 12 13 14 13 12 18 18 17 18 25 23 23 21 20 23 20 24 37 50 59 55 61 66 69
3 3 3 3 3 3 3 3 3 3 3 4 4 4 4 4 4 4 4 5 6 7 7 8 9 9 9 11 12 12 12 14 13 14 19 21 17 24 21 34 23 26 24 24 24 26 38 40 45 58 63 66 80 99
4 4 4 4 4 4 4 4 4 4 4 4 4 4 5 5 6 6 7 8 8 9 9 9 9 10 10 12 12 13 14 17 16 16 22 17 22 22 24 35 29 26 30 35 38 37 35 44 53 64 74 82 93 97
5 5 5 5 4 4 4 4 4 4 4 4 4 4 5 5 6 6 7 7 7 7 8 10 10 12 12 13 16 17 16 18 18 19 17 20 20 21 28 40 34 33 41 46 46 40 40 48 57 67 76 88 90 85
6 6 6 6 6 6 6 6 6 6 6 6 6 6 7 6 6 7 7 7 7 8 9 10 11 13 13 15 17 17 17 18 17 17 16 22 22 24 26 30 31 36 41 44 48 52 54 60 71 78 81 86 86 87
6 6 6 6 6 7 7 7 7 8 9 9 8 9 9 8 9 10 10 10 10 10 11 13 15 17 18 17 16 16 15 16 17 17 24 25 26 27 28 36 44 46 45 48 58 60 68 74 76 77 75 73 80 86
7 7 7 7 7 7 7 7 8 8 9 10 10 10 10 10 11 11 11 11 11 11 12 13 13 14 15 15 15 15 16 17 19 23 27 27 30 30 30 33 42 48 50 55 59 63 71 78 86 92 89 85 81 82
8 8 8 9 8 8 8 8 9 9 9 9 10 10 11 12 11 12 12 12 12 13 13 14 14 15 16 16 15 17 19 19 20 25 27 28 29 30 30 31 32 36 42 50 55 58 63 72 82 87 89 90 84 82
10 9 9 8 9 10 11 10 10 10 10 10 9 9 10 10 11 11 12 12 12 13 13 13 13 15 16 15 16 17 19 20 21 25 25 27 28 27 26 29 31 36 42 46 52 59 60 62 70 76 77 77 78 83
17 14 13 12 12 11 10 9 9 10 11 11 12 12 12 12 12 12 12 12 12 13 13 13 15 14 13 14 18 18 18 19 20 23 26 24 25 27 27 29 33 37 44 52 57 59 62 65 70 70 71 67 71 79
38 36 30 25 20 15 13 13 12 12 11 11 11 10 11 11 12 13 13 14 14 14 14 14 14 14 14 15 17 18 18 19 20 21 24 26 26 27 28 29 32 38 46 50 53 57 63 64 61 61 64 61 61 71
31 30 34 39 40 40 32 24 18 15 13 12 11 11 11 11 11 10 11 12 12 12 12 13 14 15 15 15 16 18 20 21 22 24 24 24 24 24 25 27 28 34 41 49 54 57 58 56 53 52 56 61 64 73
46 40 37 33 30 30 37 42 45 41 31 23 18 16 14 12 11 10 10 10 10 10 10 11 11 12 14 14 14 15 18 20 20 21 23 24 25 26 28 31 32 34 35 37 39 43 45 47 51 52 57 63 68 78
73 66 55 48 43 38 33 29 29 32 39 45 45 40 30 22 18 14 13 11 11 11 11 11 11 10 10 11 13 14 15 17 17 18 20 23 24 24 25 28 31 32 35 39 43 44 45 49 54 56 60 65 69 71
88 84 83 77 70 59 53 48 40 32 29 26 26 30 38 43 41 34 24 18 16 13 11 10 10 11 11 12 12 12 12 12 14 15 17 20 23 24 25 26 28 31 35 40 44 47 48 50 53 54 56 60 63 64
92 92 96 94 94 84 77 66 60 55 49 42 34 30 26 24 25 31 39 40 34 26 20 16 14 12 11 11 10 12 13 14 14 14 14 15 17 20 21 22 25 26 28 33 38 41 42 45 52 55 53 55 59 59
100 95 97 96 100 97 90 85 77 70 64 57 50 43 37 33 28 24 22 22 29 36 37 33 26 18 16 14 12 11 11 11 11 11 13 14 15 16 17 18 20 22 24 25 27 30 35 40 41 40 39 38 38 49
99 99 92 94 97 95 91 89 84 77 71 66 60 54 47 40 37 32 26 23 20 20 21 27 33 33 29 20 16 15 14 12 10 10 11 11 11 12 14 15 16 17 20 22 23 23 24 26 25 26 27 30 33 37
90 93 99 98 99 100 95 89 89 83 74 64 61 56 51 48 42 35 32 28 24 21 18 18 19 22 28 31 28 20 15 15 14 11 9 10 10 10 10 10 12 16 18 20 20 20 20 20 21 22 22 21 22 23
88 88 85 87 91 91 87 84 81 78 75 64 57 52 45 42 38 36 34 30 27 23 20 17 16 16 18 22 27 27 22 16 14 14 12 10 8 8 9 9 10 10 10 12 15 17 19 21 22 23 23 23 23 23
83 88 82 71 69 67 74 74 72 64 60 58 50 48 44 40 34 30 27 26 25 23 21 17 15 14 14 15 19 22 24 22 17 14 13 13 11 8 8 8 9 9 9 9 9 10 12 15 17 19 21 22 24 25
64 63 62 56 59 54 49 50 55 53 48 48 44 41 38 37 32 27 23 22 22 22 20 17 14 12 12 12 14 17 20 21 20 15 12 12 11 10 8 7 8 8 8 8 9 9 9 10 11 13 13 14 15 16
54 48 43 38 35 34 30 31 34 33 34 34 32 32 28 26 26 24 22 19 18 17 17 17 14 11 10 11 11 14 17 18 18 16 12 11 10 10 9 7 6 7 8 8 8 8 8 8 8 9 10 10 11 11
36 35 35 32 30 29 28 25 25 25 25 25 24 24 22 20 19 17 17 16 14 14 14 13 12 11 10 9 10 11 13 16 17 15 12 10 9 9 8 7 6 6 6 7 7 7 7 7 8 8 8 8 8 9
31 29 27 26 26 24 22 20 18 15 15 15 16 15 14 13 14 14 14 14 12 12 12 11 10 9 8 8 9 9 11 13 14 13 10 9 9 8 8 6 6 5 5 5 6 6 6 6 7 7 7 8 8 8